323P/SOHO (2016)

Japanese version
Home page
Updated on March 19, 2021

---------------------------------------------------------------------

* Profile

* Orbital Elements

Epoch 2016 Nov. 28.0 TT = JDT 2457720.5
T 2016 Nov. 23.63342 TT                                 MPCW
q   0.0396488            (2000.0)            P               Q
n   0.23728416     Peri.  352.99872     +0.73665729     +0.67412791
a   2.5839864      Node   324.42304     -0.61589789     +0.63595979
e   0.9846560      Incl.    5.29956     -0.27929524     +0.37564172
P   4.15
From 76 observations 2004 Mar. 12-2016 Nov. 23.

* Magnitudes Graph

        m1 = 24.0 + 5 log d + 13.0 log r

---------------------------------------------------------------------

The orbital elements are published on M.P.E.C. 2016-Y36.
The magnitudes graphs are made with Comet for Windows.

---------------------------------------------------------------------

Copyright(C) Seiichi Yoshida (comet@aerith.net). All rights reserved.